FW6661 Weather Reports


time (UTC)temp
F
wind
direction
speed
knots
gust
knots
rain 1hr
in
rain 24hr
in
rain mn
in
humidity
%
barometer
mb
20260507220704 54 112 0.9 0.9 0.00 0.06 0.00 100 986.7
20260507215703 54 62 0.0 0.9 0.00 0.06 0.00 100 986.7
20260507214704 54 80 0.9 1.7 0.00 0.06 0.00 100 986.8
20260507213705 54 41 0.9 0.9 0.00 0.06 0.00 100 986.7
20260507212727 55 100 0.9 0.9 0.00 0.06 0.00 100 986.7
20260507211704 55 303 0.9 0.9 0.00 0.06 0.00 100 986.9
20260507210706 55 135 0.0 0.9 0.00 0.06 0.00 100 986.7
20260507205704 55 135 0.9 0.9 0.00 0.06 0.00 100 986.6
20260507204712 55 135 0.0 0.0 0.00 0.06 0.00 100 986.6
20260507203716 56 90 0.9 0.9 0.00 0.06 0.00 100 986.6
20260507202711 55 111 0.0 0.9 0.00 0.06 0.00 100 986.7
20260507195703 56 90 0.0 0.0 0.00 0.06 0.00 100 987.0
20260507194704 56 135 0.0 0.0 0.00 0.06 0.00 100 987.2
20260507192705 56 135 0.0 0.0 0.00 0.06 0.00 100 987.5
20260507191702 56 0 0.0 0.0 0.00 0.06 0.00 100 987.3
20260507190703 55 0 0.0 0.0 0.00 0.06 0.00 100 987.6
20260507185720 55 0 0.0 0.0 0.00 0.06 0.00 100 987.2
20260507184714 55 90 0.0 0.0 0.00 0.06 0.00 100 987.7
20260507183704 56 45 0.0 0.0 0.00 0.06 0.00 100 987.8
20260507181703 55 0 0.0 0.0 0.00 0.06 0.00 100 987.7
20260507175704 55 135 0.0 0.0 0.00 0.06 0.00 100 988.0
20260507174703 54 0 0.0 0.0 0.00 0.06 0.00 100 988.1
20260507173704 56 0 0.0 0.0 0.00 0.06 0.00 100 987.9
20260507172725 55 0 0.0 0.0 0.00 0.06 0.00 100 988.1
20260507171704 54 135 0.9 0.9 0.00 0.06 0.00 100 988.3
20260507165703 54 135 0.0 0.0 0.00 0.06 0.00 100 988.6
20260507164703 54 0 0.0 0.0 0.00 0.06 0.00 100 988.6
20260507163717 54 0 0.0 0.0 0.02 0.06 0.00 100 988.7
20260507162703 54 0 0.0 0.0 0.02 0.06 0.00 100 988.9
20260507155717 54 135 0.0 0.0 0.02 0.06 0.00 100 989.1
20260507154704 53 164 0.0 0.9 0.02 0.06 0.00 100 989.4
20260507153705 53 0 0.0 0.0 0.00 0.03 0.00 100 989.3
20260507151704 54 135 0.0 0.9 0.00 0.03 0.00 100 989.3
20260507150703 54 0 0.0 0.0 0.01 0.03 0.00 100 988.9
20260507145705 53 135 0.0 0.0 0.01 0.03 0.00 100 989.1
20260507144704 54 135 0.0 0.0 0.01 0.03 0.00 100 989.1
20260507143705 54 0 0.0 0.0 0.01 0.03 0.00 100 989.2
20260507141704 54 0 0.0 0.0 0.01 0.03 0.00 100 989.3
20260507140702 54 135 0.0 0.0 0.01 0.02 0.00 100 989.5
20260507135703 54 0 0.0 0.0 0.01 0.02 0.00 100 989.5
20260507132710 55 0 0.0 0.0 0.01 0.02 0.00 100 989.6
20260507131703 55 0 0.0 0.0 0.01 0.02 0.00 100 989.5
20260507130702 54 135 0.0 0.0 0.00 0.01 0.00 100 989.6
20260507124703 54 0 0.0 0.0 0.00 0.01 0.00 100 989.2
20260507123709 54 0 0.0 0.0 0.00 0.01 0.00 100 989.2
20260507122705 54 0 0.0 0.0 0.00 0.01 0.00 100 989.2
20260507121704 54 0 0.0 0.0 0.00 0.01 0.00 100 989.3
20260507115705 54 0 0.0 0.0 0.00 0.01 0.00 100 989.1
20260507114703 54 0 0.0 0.0 0.00 0.01 0.00 100 989.2
20260507113704 55 0 0.0 0.0 0.00 0.01 0.00 100 988.9
20260507112710 54 0 0.0 0.0 0.00 0.01 0.00 100 988.7
20260507111704 54 0 0.0 0.0 0.00 0.01 0.00 100 988.8
20260507110708 54 90 0.0 0.0 0.00 0.01 0.00 100 988.5
20260507105705 54 0 0.0 0.0 0.00 0.01 0.00 100 988.4
20260507104706 54 0 0.0 0.0 0.00 0.01 0.00 100 988.0
20260507103705 55 135 0.0 0.0 0.00 0.01 0.00 100 988.3
20260507102704 55 0 0.0 0.0 0.00 0.01 0.00 100 988.3
20260507100706 55 0 0.0 0.0 0.00 0.01 0.00 100 988.2
20260507095702 55 0 0.0 0.0 0.00 0.01 0.00 100 988.1
20260507094709 56 0 0.0 0.0 0.00 0.01 0.00 100 988.1
20260507093704 56 0 0.0 0.0 0.00 0.01 0.00 100 987.7
20260507092704 56 0 0.0 0.0 0.00 0.01 0.00 100 987.9
20260507091704 56 0 0.0 0.0 0.00 0.01 0.00 100 988.1
20260507090704 56 0 0.0 0.0 0.00 0.01 0.00 100 988.0
20260507085703 56 0 0.0 0.0 0.00 0.01 0.00 100 987.9
20260507084703 56 0 0.0 0.0 0.00 0.01 0.00 100 987.8
20260507083705 56 0 0.0 0.0 0.00 0.01 0.00 100 987.6
20260507082702 57 0 0.0 0.0 0.00 0.01 0.00 100 987.7
20260507081703 58 90 0.0 0.0 0.00 0.01 0.00 100 987.4
20260507075705 58 155 0.0 0.9 0.00 0.01 0.00 100 987.4
20260507074710 59 90 0.0 0.0 0.00 0.01 0.00 100 987.2
20260507073704 61 45 0.0 0.0 0.00 0.01 0.00 100 987.3
20260507072703 62 0 0.0 0.0 0.00 0.01 0.00 100 986.8
20260507071705 63 135 0.0 0.0 0.00 0.01 0.00 100 986.4
20260507070704 63 135 0.0 0.9 0.00 0.01 0.00 100 986.5
20260507065711 63 0 0.0 0.0 0.00 0.01 0.00 100 986.4
20260507064702 63 0 0.0 0.0 0.00 0.01 0.00 100 986.3
20260507063704 63 0 0.0 0.0 0.00 0.01 0.00 100 986.4
20260507062709 63 90 0.0 0.0 0.00 0.01 0.00 100 986.7
20260507061703 63 180 0.0 0.0 0.00 0.01 0.00 100 986.8
20260507060705 63 0 0.0 0.0 0.00 0.01 0.00 100 986.8
20260507055703 63 0 0.0 0.0 0.00 0.01 0.00 100 986.7
20260507054708 63 0 0.0 0.0 0.00 0.01 0.00 100 986.9
20260507053702 64 0 0.0 0.0 0.00 0.01 0.00 100 986.5
20260507052704 64 0 0.0 0.0 0.00 0.01 0.00 100 986.3
20260507051704 63 0 0.0 0.0 0.01 0.01 0.00 100 985.6
20260507050702 63 0 0.0 0.0 0.01 0.01 0.00 100 985.4
20260507045704 64 0 0.0 0.0 0.01 0.01 0.00 100 985.7
20260507044704 64 0 0.0 0.0 0.01 0.01 0.00 100 986.0
20260507043708 64 0 0.0 0.0 0.01 0.01 0.00 100 986.4
20260507042705 64 0 0.0 0.0 0.02 0.01 0.00 100 986.3
20260507041704 64 180 0.0 0.0 0.01 0.00 0.00 100 986.5
20260507040703 64 0 0.0 0.0 0.01 0.00 0.00 100 986.2
20260507035705 64 0 0.0 0.0 0.01 0.03 0.00 100 986.2
20260507034704 64 0 0.0 0.0 0.01 0.03 0.00 100 986.3
20260507033710 65 0 0.0 0.0 0.01 0.03 0.00 100 986.9
20260507032704 65 0 0.0 0.0 0.00 0.02 0.00 100 986.7
20260507031712 65 0 0.0 0.0 0.00 0.02 0.00 100 986.9
20260507030705 65 0 0.0 0.0 0.00 0.02 0.00 100 986.2
20260507025704 65 0 0.0 0.0 0.00 0.02 0.00 100 986.2
20260507023706 65 0 0.0 0.0 0.00 0.02 0.00 100 986.4
20260507022705 65 135 0.0 0.0 0.00 0.02 0.00 100 986.5
20260507021704 65 0 0.0 0.0 0.00 0.02 0.00 100 986.2
20260507020704 65 135 0.0 0.0 0.00 0.02 0.00 100 985.9
20260507015702 65 0 0.0 0.0 0.00 0.02 0.00 100 985.4
20260507014704 65 0 0.0 0.0 0.00 0.02 0.00 100 985.6
20260507013704 65 0 0.0 0.0 0.00 0.02 0.00 100 985.9
20260507012705 65 0 0.0 0.0 0.00 0.02 0.00 100 986.0
20260507011718 65 0 0.0 0.0 0.00 0.02 0.00 100 985.7
20260507010705 65 0 0.0 0.0 0.00 0.02 0.00 100 986.1
20260507005706 66 0 0.0 0.0 0.00 0.02 0.00 100 986.2
20260507004704 66 0 0.0 0.0 0.00 0.02 0.00 100 986.1
20260507003719 66 0 0.0 0.0 0.00 0.02 0.00 100 986.1
20260507002753 67 0 0.0 0.0 0.00 0.02 0.00 100 985.8
20260507000710 67 135 0.0 0.0 0.00 0.02 0.00 100 986.1
20260506233710 69 63 0.9 0.9 0.00 0.02 0.00 100 985.3
20260506232704 69 0 0.0 0.0 0.00 0.02 0.00 100 985.9
20260506231719 70 90 0.0 0.0 0.00 0.02 0.00 100 986.0
20260506230704 70 0 0.0 0.0 0.00 0.02 0.00 100 985.8
20260506225711 70 77 0.9 0.9 0.00 0.02 0.00 100 985.6
20260506224704 70 51 0.9 1.7 0.00 0.02 0.00 100 985.4
20260506223704 71 118 0.0 0.9 0.00 0.02 0.00 100 985.0
20260506222703 71 49 0.9 0.9 0.00 0.02 0.00 100 985.4
20260506221703 71 0 0.0 0.0 0.00 0.02 0.00 100 985.3